Time,TemperatureF,DewpointF,PressureIn,WindDirection,WindDirectionDegrees,WindSpeedMPH,WindSpeedGustMPH,Humidity,HourlyPrecipIn,Conditions,Clouds,dailyrainin,SolarRadiationWatts/m^2,SoftwareType,DateUTC
2013-04-27 00:11:00,48.0,29.0,-100.00,NW,312,9.0,11.0,48,-99.99,,,0.00,0.000000,,2013-04-27 07:11:00,
2013-04-27 00:21:00,48.0,29.0,-100.00,NW,312,9.0,11.0,48,-99.99,,,0.00,0.000000,,2013-04-27 07:21:00,
2013-04-27 00:41:00,48.0,29.0,-100.00,NW,312,9.0,11.0,48,-99.99,,,0.00,0.000000,,2013-04-27 07:41:00,
2013-04-27 01:11:00,46.0,29.0,-100.00,NW,322,7.0,11.0,51,0.00,,,0.00,0.000000,,2013-04-27 08:11:00,
2013-04-27 01:21:00,46.0,29.0,-100.00,NW,322,7.0,11.0,51,0.00,,,0.00,0.000000,,2013-04-27 08:21:00,
2013-04-27 02:11:00,49.0,30.0,-100.00,NW,311,6.0,11.0,47,0.00,,,0.00,0.000000,,2013-04-27 09:11:00,
2013-04-27 02:21:00,49.0,30.0,-100.00,NW,311,6.0,11.0,47,0.00,,,0.00,0.000000,,2013-04-27 09:21:00,
2013-04-27 02:33:00,49.0,30.0,-100.00,NW,311,6.0,11.0,47,0.00,,,0.00,0.000000,,2013-04-27 09:33:00,
2013-04-27 02:42:00,49.0,30.0,-100.00,NW,311,6.0,11.0,47,0.00,,,0.00,0.000000,,2013-04-27 09:42:00,
2013-04-27 03:12:00,49.0,29.0,-100.00,WNW,289,6.0,10.0,46,0.00,,,0.00,0.000000,,2013-04-27 10:12:00,
2013-04-27 03:22:00,49.0,29.0,-100.00,WNW,289,6.0,10.0,46,0.00,,,0.00,0.000000,,2013-04-27 10:22:00,
2013-04-27 03:32:00,49.0,29.0,-100.00,WNW,289,6.0,10.0,46,0.00,,,0.00,0.000000,,2013-04-27 10:32:00,
2013-04-27 03:42:00,49.0,29.0,-100.00,WNW,289,6.0,10.0,46,0.00,,,0.00,0.000000,,2013-04-27 10:42:00,
2013-04-27 04:11:00,45.0,27.0,-100.00,WSW,255,9.0,11.0,49,0.00,,,0.00,0.000000,,2013-04-27 11:11:00,
2013-04-27 04:22:00,45.0,27.0,-100.00,WSW,255,9.0,11.0,49,0.00,,,0.00,0.000000,,2013-04-27 11:22:00,
2013-04-27 04:31:00,45.0,27.0,-100.00,WSW,255,9.0,11.0,49,0.00,,,0.00,0.000000,,2013-04-27 11:31:00,
2013-04-27 05:11:00,47.0,26.0,-100.00,WNW,292,6.0,12.0,43,0.00,,,0.00,0.000000,,2013-04-27 12:11:00,
2013-04-27 05:21:00,47.0,26.0,-100.00,WNW,292,6.0,12.0,43,0.00,,,0.00,0.000000,,2013-04-27 12:21:00,
2013-04-27 05:32:00,47.0,26.0,-100.00,WNW,292,6.0,12.0,43,0.00,,,0.00,0.000000,,2013-04-27 12:32:00,
2013-04-27 05:42:00,47.0,26.0,-100.00,WNW,292,6.0,12.0,43,0.00,,,0.00,0.000000,,2013-04-27 12:42:00,
2013-04-27 06:11:00,44.0,22.0,-100.00,West,273,5.0,9.0,42,0.00,,,0.00,0.000000,,2013-04-27 13:11:00,
2013-04-27 06:21:00,44.0,22.0,-100.00,West,273,5.0,9.0,42,0.00,,,0.00,0.000000,,2013-04-27 13:21:00,
2013-04-27 06:32:00,44.0,22.0,-100.00,West,273,5.0,9.0,42,0.00,,,0.00,0.000000,,2013-04-27 13:32:00,
2013-04-27 07:11:00,45.0,26.0,-100.00,West,274,4.0,7.0,47,0.00,,,0.00,0.000000,,2013-04-27 14:11:00,
2013-04-27 07:21:00,45.0,26.0,-100.00,West,274,4.0,7.0,47,0.00,,,0.00,0.000000,,2013-04-27 14:21:00,
2013-04-27 07:31:00,45.0,26.0,-100.00,West,274,4.0,7.0,47,0.00,,,0.00,0.000000,,2013-04-27 14:31:00,
2013-04-27 07:41:00,45.0,26.0,-100.00,West,274,4.0,7.0,47,0.00,,,0.00,0.000000,,2013-04-27 14:41:00,
2013-04-27 08:11:00,52.0,28.0,-100.00,WSW,243,4.0,6.0,39,0.00,,,0.00,36.000000,,2013-04-27 15:11:00,
2013-04-27 08:21:00,52.0,28.0,-100.00,WSW,243,4.0,6.0,39,0.00,,,0.00,36.000000,,2013-04-27 15:21:00,
2013-04-27 08:33:00,52.0,28.0,-100.00,WSW,243,4.0,6.0,39,0.00,,,0.00,36.000000,,2013-04-27 15:33:00,
2013-04-27 08:42:00,52.0,28.0,-100.00,WSW,243,4.0,6.0,39,0.00,,,0.00,36.000000,,2013-04-27 15:42:00,
2013-04-27 09:13:00,59.0,23.0,-100.00,SW,230,13.0,18.0,25,0.00,,,0.00,193.000000,,2013-04-27 16:13:00,
2013-04-27 09:22:00,59.0,23.0,-100.00,SW,230,13.0,18.0,25,0.00,,,0.00,193.000000,,2013-04-27 16:22:00,
2013-04-27 09:32:00,59.0,23.0,-100.00,SW,230,13.0,18.0,25,0.00,,,0.00,193.000000,,2013-04-27 16:32:00,
2013-04-27 09:42:00,59.0,23.0,-100.00,SW,230,13.0,18.0,25,0.00,,,0.00,193.000000,,2013-04-27 16:42:00,
2013-04-27 10:11:00,61.0,24.0,-100.00,SW,221,13.0,20.0,24,0.00,,,-99.99,387.000000,,2013-04-27 17:11:00,
2013-04-27 10:22:00,61.0,24.0,-100.00,SW,221,13.0,20.0,24,0.00,,,-99.99,387.000000,,2013-04-27 17:22:00,
2013-04-27 10:31:00,61.0,24.0,-100.00,SW,221,13.0,20.0,24,0.00,,,-99.99,387.000000,,2013-04-27 17:31:00,
2013-04-27 10:42:00,61.0,24.0,-100.00,SW,221,13.0,20.0,24,0.00,,,-99.99,387.000000,,2013-04-27 17:42:00,
2013-04-27 11:11:00,64.0,25.0,-100.00,WSW,256,13.0,22.0,23,0.00,,,0.00,557.000000,,2013-04-27 18:11:00,
2013-04-27 11:22:00,64.0,25.0,-100.00,WSW,256,13.0,22.0,23,0.00,,,0.00,557.000000,,2013-04-27 18:22:00,
2013-04-27 11:32:00,64.0,25.0,-100.00,WSW,256,13.0,22.0,23,0.00,,,0.00,557.000000,,2013-04-27 18:32:00,
2013-04-27 11:41:00,64.0,25.0,-100.00,WSW,256,13.0,22.0,23,0.00,,,0.00,557.000000,,2013-04-27 18:41:00,
2013-04-27 12:11:00,62.0,29.0,-100.00,WNW,301,18.0,31.0,28,0.00,,,0.00,560.000000,,2013-04-27 19:11:00,
2013-04-27 12:21:00,62.0,29.0,-100.00,WNW,301,18.0,31.0,28,0.00,,,0.00,560.000000,,2013-04-27 19:21:00,
2013-04-27 12:32:00,62.0,29.0,-100.00,WNW,301,18.0,31.0,28,0.00,,,0.00,560.000000,,2013-04-27 19:32:00,
2013-04-27 12:42:00,62.0,29.0,-100.00,WNW,301,18.0,31.0,28,0.00,,,0.00,560.000000,,2013-04-27 19:42:00,
2013-04-27 13:11:00,61.0,32.0,-100.00,WNW,284,23.0,36.0,33,0.00,,,0.00,541.000000,,2013-04-27 20:11:00,
2013-04-27 13:21:00,61.0,32.0,-100.00,WNW,284,23.0,36.0,33,0.00,,,0.00,541.000000,,2013-04-27 20:21:00,
2013-04-27 13:32:00,61.0,32.0,-100.00,WNW,284,23.0,36.0,33,0.00,,,0.00,541.000000,,2013-04-27 20:32:00,
2013-04-27 13:41:00,61.0,32.0,-100.00,WNW,284,23.0,36.0,33,0.00,,,0.00,541.000000,,2013-04-27 20:41:00,
2013-04-27 14:11:00,63.0,35.0,-100.00,West,281,22.0,31.0,35,0.00,,,0.00,773.000000,,2013-04-27 21:11:00,
2013-04-27 14:21:00,63.0,35.0,-100.00,West,281,22.0,31.0,35,0.00,,,0.00,773.000000,,2013-04-27 21:21:00,
2013-04-27 14:32:00,63.0,35.0,-100.00,West,281,22.0,31.0,35,0.00,,,0.00,773.000000,,2013-04-27 21:32:00,
2013-04-27 14:42:00,63.0,35.0,-100.00,West,281,22.0,31.0,35,0.00,,,0.00,773.000000,,2013-04-27 21:42:00,
2013-04-27 15:12:00,61.0,34.0,-100.00,WNW,289,19.0,30.0,36,0.00,,,0.00,748.000000,,2013-04-27 22:12:00,
2013-04-27 15:22:00,61.0,34.0,-100.00,WNW,289,19.0,30.0,36,0.00,,,0.00,748.000000,,2013-04-27 22:22:00,
2013-04-27 15:32:00,61.0,34.0,-100.00,WNW,289,19.0,30.0,36,0.00,,,0.00,748.000000,,2013-04-27 22:32:00,
2013-04-27 15:42:00,61.0,34.0,-100.00,WNW,289,19.0,30.0,36,0.00,,,0.00,748.000000,,2013-04-27 22:42:00,
2013-04-27 16:11:00,59.0,33.0,-100.00,WNW,295,17.0,28.0,38,0.00,,,0.00,551.000000,,2013-04-27 23:11:00,
2013-04-27 16:22:00,59.0,33.0,-100.00,WNW,295,17.0,28.0,38,0.00,,,0.00,551.000000,,2013-04-27 23:22:00,
2013-04-27 16:32:00,59.0,33.0,-100.00,WNW,295,17.0,28.0,38,0.00,,,0.00,551.000000,,2013-04-27 23:32:00,
2013-04-27 16:42:00,59.0,33.0,-100.00,WNW,295,17.0,28.0,38,0.00,,,0.00,551.000000,,2013-04-27 23:42:00,
2013-04-27 17:11:00,58.0,34.0,-100.00,West,271,15.0,28.0,40,0.00,,,0.00,400.000000,,2013-04-28 00:11:00,
2013-04-27 17:21:00,58.0,34.0,-100.00,West,271,15.0,28.0,40,0.00,,,0.00,400.000000,,2013-04-28 00:21:00,
2013-04-27 17:31:00,58.0,34.0,-100.00,West,271,15.0,28.0,40,0.00,,,0.00,400.000000,,2013-04-28 00:31:00,
2013-04-27 17:42:00,58.0,34.0,-100.00,West,271,15.0,28.0,40,0.00,,,0.00,400.000000,,2013-04-28 00:42:00,
2013-04-27 18:11:00,55.0,33.0,-100.00,WNW,289,15.0,26.0,43,0.00,,,0.00,365.000000,,2013-04-28 01:11:00,
2013-04-27 18:21:00,55.0,33.0,-100.00,WNW,289,15.0,26.0,43,0.00,,,0.00,365.000000,,2013-04-28 01:21:00,
2013-04-27 18:31:00,55.0,33.0,-100.00,WNW,289,15.0,26.0,43,0.00,,,0.00,365.000000,,2013-04-28 01:31:00,
2013-04-27 18:41:00,55.0,33.0,-100.00,WNW,289,15.0,26.0,43,0.00,,,0.00,365.000000,,2013-04-28 01:41:00,
2013-04-27 19:12:00,55.0,33.0,-100.00,West,273,15.0,25.0,44,0.00,,,0.00,47.000000,,2013-04-28 02:12:00,
2013-04-27 19:21:00,55.0,33.0,-100.00,West,273,15.0,25.0,44,0.00,,,0.00,47.000000,,2013-04-28 02:21:00,
2013-04-27 19:32:00,55.0,33.0,-100.00,West,273,15.0,25.0,44,0.00,,,0.00,47.000000,,2013-04-28 02:32:00,
2013-04-27 19:41:00,55.0,33.0,-100.00,West,273,15.0,25.0,44,0.00,,,0.00,47.000000,,2013-04-28 02:41:00,
2013-04-27 20:11:00,50.0,32.0,-100.00,West,270,19.0,26.0,50,0.00,,,0.00,0.000000,,2013-04-28 03:11:00,
2013-04-27 20:21:00,50.0,32.0,-100.00,West,270,19.0,26.0,50,0.00,,,0.00,0.000000,,2013-04-28 03:21:00,
2013-04-27 20:32:00,50.0,32.0,-100.00,West,270,19.0,26.0,50,0.00,,,0.00,0.000000,,2013-04-28 03:32:00,
2013-04-27 20:42:00,50.0,32.0,-100.00,West,270,19.0,26.0,50,0.00,,,0.00,0.000000,,2013-04-28 03:42:00,
2013-04-27 21:13:00,48.0,33.0,-100.00,West,268,20.0,26.0,55,0.00,,,0.00,0.000000,,2013-04-28 04:13:00,
2013-04-27 21:22:00,48.0,33.0,-100.00,West,268,20.0,26.0,55,0.00,,,0.00,0.000000,,2013-04-28 04:22:00,
2013-04-27 21:32:00,48.0,33.0,-100.00,West,268,20.0,26.0,55,0.00,,,0.00,0.000000,,2013-04-28 04:32:00,
2013-04-27 21:42:00,48.0,33.0,-100.00,West,268,20.0,26.0,55,0.00,,,0.00,0.000000,,2013-04-28 04:42:00,
2013-04-27 22:12:00,48.0,33.0,-100.00,West,281,23.0,34.0,55,0.00,,,0.00,0.000000,,2013-04-28 05:12:00,
2013-04-27 22:22:00,48.0,33.0,-100.00,West,281,23.0,34.0,55,0.00,,,0.00,0.000000,,2013-04-28 05:22:00,
2013-04-27 22:32:00,48.0,33.0,-100.00,West,281,23.0,34.0,55,0.00,,,0.00,0.000000,,2013-04-28 05:32:00,
2013-04-27 22:42:00,48.0,33.0,-100.00,West,281,23.0,34.0,55,0.00,,,0.00,0.000000,,2013-04-28 05:42:00,
2013-04-27 23:12:00,47.0,33.0,-100.00,West,279,15.0,33.0,57,0.00,,,0.00,0.000000,,2013-04-28 06:12:00,
2013-04-27 23:21:00,47.0,33.0,-100.00,West,279,15.0,33.0,57,0.00,,,0.00,0.000000,,2013-04-28 06:21:00,
2013-04-27 23:32:00,47.0,33.0,-100.00,West,279,15.0,33.0,57,0.00,,,0.00,0.000000,,2013-04-28 06:32:00,
2013-04-27 23:42:00,47.0,33.0,-100.00,West,279,15.0,33.0,57,0.00,,,0.00,0.000000,,2013-04-28 06:42:00,